TimeCDT,TemperatureF,Dew PointF,Humidity,Sea Level PressureIn,VisibilityMPH,Wind Direction,Wind SpeedMPH,Gust SpeedMPH,PrecipitationIn,Events,Conditions,WindDirDegrees,DateUTC
12:15 AM,73.6,60.3,63,30.06,10.0,Calm,Calm,-,N/A,,Clear,0,2013-08-18 05:15:00
12:35 AM,73.0,59.2,62,30.06,10.0,Calm,Calm,-,N/A,,Clear,0,2013-08-18 05:35:00
12:55 AM,73.0,59.5,62,30.07,10.0,Calm,Calm,-,N/A,,Clear,0,2013-08-18 05:55:00
1:15 AM,71.1,59.2,66,30.07,10.0,Calm,Calm,-,N/A,,Clear,0,2013-08-18 06:15:00
1:35 AM,68.0,59.2,73,30.06,10.0,Calm,Calm,-,N/A,,Clear,0,2013-08-18 06:35:00
1:55 AM,71.4,58.3,63,30.06,10.0,Calm,Calm,-,N/A,,Clear,0,2013-08-18 06:55:00
2:15 AM,70.3,58.5,66,30.06,10.0,Calm,Calm,-,N/A,,Clear,0,2013-08-18 07:15:00
2:35 AM,70.3,58.1,65,30.05,10.0,Calm,Calm,-,N/A,,Clear,0,2013-08-18 07:35:00
2:55 AM,68.0,58.8,72,30.05,10.0,Calm,Calm,-,N/A,,Clear,0,2013-08-18 07:55:00
3:15 AM,70.0,57.9,65,30.05,10.0,Calm,Calm,-,N/A,,Clear,0,2013-08-18 08:15:00
3:35 AM,68.9,58.3,69,30.06,10.0,Calm,Calm,-,N/A,,Clear,0,2013-08-18 08:35:00
3:55 AM,70.0,58.3,66,30.05,10.0,Calm,Calm,-,N/A,,Clear,0,2013-08-18 08:55:00
4:15 AM,66.2,59.0,78,30.05,10.0,Calm,Calm,-,N/A,,Clear,0,2013-08-18 09:15:00
4:35 AM,63.5,57.7,81,30.05,10.0,Calm,Calm,-,N/A,,Clear,0,2013-08-18 09:35:00
4:55 AM,63.7,58.5,83,30.05,10.0,Calm,Calm,-,N/A,,Scattered Clouds,0,2013-08-18 09:55:00
5:15 AM,65.3,59.5,82,30.05,10.0,Calm,Calm,-,N/A,,Clear,0,2013-08-18 10:15:00
5:35 AM,64.9,59.2,82,30.05,10.0,Calm,Calm,-,N/A,,Clear,0,2013-08-18 10:35:00
5:55 AM,64.4,58.3,80,30.05,10.0,Calm,Calm,-,N/A,,Clear,0,2013-08-18 10:55:00
6:15 AM,62.6,58.1,85,30.05,10.0,Calm,Calm,-,N/A,,Clear,0,2013-08-18 11:15:00
6:47 AM,62.6,57.2,82,30.06,10.0,Calm,Calm,-,N/A,,Clear,0,2013-08-18 11:47:00
7:49 AM,68.0,60.8,78,30.08,10.0,Calm,Calm,-,N/A,,Clear,0,2013-08-18 12:49:00
8:51 AM,73.4,62.6,69,30.11,10.0,Calm,Calm,-,N/A,,Clear,0,2013-08-18 13:51:00
9:47 AM,78.8,62.6,57,30.12,10.0,ESE,6.9,-,N/A,,Clear,110,2013-08-18 14:47:00
10:49 AM,82.4,62.6,51,30.13,10.0,East,5.8,-,N/A,,Clear,90,2013-08-18 15:49:00
11:48 AM,84.2,60.8,45,30.12,10.0,ESE,8.1,-,N/A,,Partly Cloudy,110,2013-08-18 16:48:00
12:48 PM,87.8,59.0,38,30.10,10.0,Calm,Calm,-,N/A,,Partly Cloudy,0,2013-08-18 17:48:00
1:46 PM,87.8,57.2,35,30.08,10.0,ENE,5.8,-,N/A,,Partly Cloudy,70,2013-08-18 18:46:00
2:48 PM,89.6,57.2,33,30.07,10.0,Calm,Calm,-,N/A,,Partly Cloudy,0,2013-08-18 19:48:00
3:48 PM,91.4,57.2,31,30.06,10.0,East,5.8,-,N/A,,Partly Cloudy,90,2013-08-18 20:48:00
4:50 PM,89.6,57.2,33,30.04,10.0,East,12.7,-,N/A,,Partly Cloudy,80,2013-08-18 21:50:00
5:50 PM,91.4,57.2,31,30.03,10.0,ENE,5.8,-,N/A,,Clear,70,2013-08-18 22:50:00
6:50 PM,89.6,57.2,33,30.02,10.0,ENE,8.1,-,N/A,,Clear,70,2013-08-18 23:50:00
7:55 PM,85.6,57.4,38,30.02,10.0,East,3.5,-,N/A,,Scattered Clouds,90,2013-08-19 00:55:00
8:15 PM,84.0,57.6,40,30.02,10.0,East,3.5,-,N/A,,Clear,100,2013-08-19 01:15:00
8:35 PM,82.8,57.6,42,30.02,10.0,East,3.5,-,N/A,,Clear,100,2013-08-19 01:35:00
8:55 PM,79.0,58.8,50,30.02,10.0,Calm,Calm,-,N/A,,Clear,0,2013-08-19 01:55:00
9:15 PM,76.6,59.2,55,30.03,10.0,Calm,Calm,-,N/A,,Clear,0,2013-08-19 02:15:00
9:35 PM,77.4,58.6,52,30.03,10.0,Calm,Calm,-,N/A,,Clear,0,2013-08-19 02:35:00
9:55 PM,75.9,59.5,57,30.04,10.0,Calm,Calm,-,N/A,,Clear,0,2013-08-19 02:55:00
10:15 PM,73.6,59.5,61,30.04,10.0,SSE,3.5,-,N/A,,Clear,150,2013-08-19 03:15:00
10:35 PM,74.3,59.4,60,30.04,10.0,Calm,Calm,-,N/A,,Clear,0,2013-08-19 03:35:00
10:55 PM,74.8,59.0,58,30.05,10.0,Calm,Calm,-,N/A,,Clear,0,2013-08-19 03:55:00
11:15 PM,75.4,59.0,57,30.05,10.0,Calm,Calm,-,N/A,,Clear,0,2013-08-19 04:15:00
11:35 PM,75.2,58.1,55,30.05,10.0,Calm,Calm,-,N/A,,Clear,0,2013-08-19 04:35:00
11:55 PM,71.2,59.0,65,30.05,10.0,Calm,Calm,-,N/A,,Clear,0,2013-08-19 04:55:00